Regional Weather Roundup
Issued by NWS Boston, MA

Home | Current Version | Previous Version | Text Only | Print | Product List | Glossary On
Versions: 1 2 3 4 5 6 7 8 9 10 11 12 13 14 15 16 17 18 19 20 21 22 23 24 25 26 27 28
000
ASUS41 KBOX 272110
RWRBOX

REGIONAL WEATHER ROUNDUP
NATIONAL WEATHER SERVICE TAUNTON MA
500 PM EDT FRI MAY 27 2016

NOTE:  "FAIR" INDICATES FEW OR NO CLOUDS BELOW 12,000 FEET WITH NO
SIGNIFICANT WEATHER AND/OR OBSTRUCTIONS TO VISIBILITY.  THE FOLLOWING
OBSERVATION LOCATIONS DO NOT REPORT PRESENT WEATHER...PROVINCETOWN...
SMITHFIELD...BLOCK ISLAND...KEENE...AND OXFORD.

MAZALL-272200-
EASTERN MASSACHUSETTS

CITY           SKY/WX    TMP DP  RH WIND       PRES   REMARKS
BOSTON         PTSUNNY   63  55  75 E8        30.04F
BEVERLY        MOSUNNY   72  59  63 SE5       30.03F
LAWRENCE       MOSUNNY   75  58  55 E9        30.04F
BEDFORD        SUNNY     79  60  52 SE9       30.00F
BLUE HILL        N/A     79  62  56 S7        30.03F
NORWOOD        MOSUNNY   82  64  54 VRB3      30.01F
MARSHFIELD     MOSUNNY   73  61  64 CALM      30.03F
PLYMOUTH       SUNNY     79  64  60 SW12      30.05F
TAUNTON        SUNNY     82  62  50 SW14G22   30.04F
NEW BEDFORD    SUNNY     76  63  64 SW13G22   30.05F
$$

MAZALL-272200-
CAPE COD AND THE ISLANDS

CITY           SKY/WX    TMP DP  RH WIND       PRES   REMARKS
FALMOUTH       SUNNY     72  63  73 SW15G23   30.07F
HYANNIS        SUNNY     72  61  68 SW15      30.06F
CHATHAM        SUNNY     64  59  83 SW10G22   30.09F
PROVINCETOWN   CLOUDY    72  62  71 SW17G24   30.05F
NANTUCKET      SUNNY     65  57  75 SW14      30.11S
MARTHAS VNYRD  SUNNY     68  59  73 SW12G24   30.09F
$$

MAZALL-272200-
CENTRAL AND WESTERN MASSACHUSETTS

CITY           SKY/WX    TMP DP  RH WIND       PRES   REMARKS
WORCESTER      PTSUNNY   83  61  47 S16       30.05S
FITCHBURG      MOSUNNY   86  63  45 S12       30.01S
ORANGE         MOSUNNY   86  63  45 S12G21    30.00S
SPRINGFIELD    PTSUNNY   86  64  48 S13       29.98F
WESTFIELD      MOSUNNY   87  64  46 SW18      29.99S
NORTH ADAMS    CLOUDY    85  65  51 W6        29.99F
PITTSFIELD     PTSUNNY   82  63  52 SW7       30.02F
$$

RIZALL-272200-
RHODE ISLAND

CITY           SKY/WX    TMP DP  RH WIND       PRES   REMARKS
PROVIDENCE     PTSUNNY   82  63  52 S12       30.05S
NEWPORT        SUNNY     68  60  75 S8        30.07F
BLOCK ISLAND   SUNNY     65  58  78 SW20G26   30.08F
SMITHFIELD     MOSUNNY  N/A N/A N/A SW8       30.03S
WESTERLY       SUNNY     71  58  63 SW12      30.08S
$$

CTZALL-272200-
CONNECTICUT

CITY           SKY/WX    TMP DP  RH WIND       PRES   REMARKS
BRADLEY INTL   PTSUNNY   86  63  45 S13G25    29.99F
HARTFORD       SUNNY     88  65  46 S12       30.01S HX  90
BRIDGEPORT     SUNNY     77  64  64 SE6       30.04S
DANBURY        MOSUNNY   81  64  56 S9        30.04S
GROTON         SUNNY     66  61  84 S7        30.07R
NEW HAVEN      SUNNY     77  63  61 S9        30.05S
CHESTER        FAIR      77  64  65 MISG      30.06F
MERIDEN        MOSUNNY   82  64  54 S13       30.03S
WILLIMANTIC    MOSUNNY   88  62  41 S17G23    30.03S
OXFORD         MOSUNNY   79  63  57 S14       30.06F
$$

MEZ002-015-021-024-NHZ003-005-008-011-012-014-VTZ005-008-272200-
NORTHERN NEW ENGLAND

CITY           SKY/WX    TMP DP  RH WIND       PRES   REMARKS
PORTLAND ME    PTSUNNY   58  53  84 E7        30.06F
BANGOR ME      CLOUDY    64  52  64 S9        30.06F
CONCORD NH     CLOUDY    85  63  47 SE7       29.99F
MANCHESTER NH  PTSUNNY   83  60  45 SE9       29.99S
NASHUA NH      MOSUNNY   83  64  52 SE9G17    30.00S
PORTSMOUTH NH  PTSUNNY   61  54  77 SE8       30.03F
JAFFREY NH     MOSUNNY   84  61  45 S9        30.03S
KEENE NH       MOSUNNY  N/A N/A N/A SW8       29.99S
BURLINGTON VT  FAIR      90  62  39 S16       29.90F HX  90
MT. WASHINGTON PTSUNNY   57  54  88 SW43        N/A
$$

NYZ052-076-272200-
EASTERN NEW YORK

CITY           SKY/WX    TMP DP  RH WIND       PRES   REMARKS
ALBANY         CLOUDY    86  66  51 S16       29.97F
NEW YORK CITY  PTSUNNY   79  68  69 S15G23    30.02F
$$

ANZALL-272200-
MARINE OBSERVATIONS

STATION/POSITION TIME  TEMP    WIND        PRES    VSBY  WAVE
                       AIR SEA DIR/SP/G                  HT/PER
                 (UTC) (F)     (DEG/KT/KT) (MB)    (MI)  (FT/S)
BOSTON BUOY      2050   57 57   70/  8/ 10 1016.9F         1/ 4
BUZZARDS BAY     2000   59     210/ 10/ 11 1019.3F
NANTUCKET SOUND  2050   60 58  230/ 12/ 14 1018.6F         1/ 3
MASS BAY-STELLWA 2004   55 58                N/A     1/4   2/ 4
ISLE OF SHOALS   2100   54      90/  5/  5 1017.4F
S OF BLOCK IS    2025      56                N/A           3/ 4
$$

......................KEY.........................
  SKY/WX - SKY CONDITION/PRESENT WEATHER
  TMP    - TEMPERATURE IN FAHRENHEIT
  DWPT   - DEWPOINT IN FAHRENHEIT
  RH     - RELATIVE HUMIDITY IN PERCENT
  WIND   - DIRECTION AND SPEED IN MPH
  PRES   - MEAN SEA LEVEL PRESSURE IN INCHES OF HG
  WCI    - WIND CHILL INDEX
  VSB    - VISIBILITY IN MILES
  HX     - HEAT INDEX
  TC     - TEMPERATURE IN CELSIUS
  VRB    - VARIABLE WIND DIRECTION
  N/A    - NOT AVAILABLE




USA.gov is the U.S. government's official web portal to all federal, state and local government web resources and services.